Regional Weather Roundup
Issued by NWS Cleveland, OH

Home | Current Version | Previous Version | Graphics & Text | Print | Product List | Glossary On
Versions: 1 2 3 4 5 6 7 8 9 10 11 12 13 14 15 16 17 18 19 20 21 22 23 24 25 26 27 28 29 30 31 32 33 34 35 36 37 38 39 40 41 42 43 44 45 46 47 48 49 50
047
ASUS41 KCLE 180800
RWRCLE
OHIO REGIONAL WEATHER ROUNDUP
NATIONAL WEATHER SERVICE WILMINGTON, OH
400 AM EDT FRI AUG 18 2017

NOTE: "FAIR" INDICATES FEW OR NO CLOUDS BELOW 12,000 FEET WITH NO
SIGNIFICANT WEATHER AND/OR OBSTRUCTIONS TO VISIBILITY.

OHZ001>008-015>018-024>027-034-035-043-044-180900-
   NORTHWEST OHIO

CITY           SKY/WX    TMP DP  RH WIND       PRES   REMARKS
DEFIANCE       FAIR      70  65  84 SW5       29.77S
FINDLAY        FAIR      71  67  87 SW9       29.78S
TOLEDO EXPRESS FAIR      71  68  90 SW14      29.75S
TOLEDO EXEC    FAIR      72  68  87 SW9       29.75F
LIMA           FAIR      69  68  96 SW7       29.80S
$$

OHZ009>014-019>023-028>033-038-089-180900-
   NORTHEAST OHIO

CITY           SKY/WX    TMP DP  RH WIND       PRES   REMARKS
CLE-HOPKINS    FAIR      74  70  87 S7        29.79F
CLE-LAKEFRONT  FAIR      75  69  81 S12       29.76F
CUY CO. ARPT   NOT AVBL
LORAIN-ELYRIA  FAIR      71  66  84 SW8       29.78F
ASHTABULA      FAIR      71  71 100 SW7       29.80S
AKRON-CANTON   CLOUDY    73  69  87 SW7       29.82F
WOOSTER        NOT AVBL
MANSFIELD      FAIR      72  71  97 SW9       29.82S
YOUNGSTOWN     CLOUDY    71  70  96 S6        29.82F
$$

OHZ042-051>053-060>062-070>072-077>081-180900-
  SOUTHWEST OHIO

CITY           SKY/WX    TMP DP  RH WIND       PRES   REMARKS
CINC-COVINGTON CLOUDY    74  74 100 SW6       29.85S
CINC-LUNKEN    MOCLDY    74  74 100 S3        29.84S
HAMILTON       MOCLDY    75  74  96 SW5       29.84F
DAYTON         NOT AVBL
WRIGHT-PAT AFB NOT AVBL
DAYTON GENERAL CLOUDY    74  72  93 SW7       29.83F
WILMINGTON     CLOUDY    73  73 100 SW8       29.84F FOG
$$

OHZ036-037-039>041-045>050-054>059-063>069-073>076-082>088-180900-
  CENTRAL AND SOUTHEAST OHIO

CITY           SKY/WX    TMP DP  RH WIND       PRES   REMARKS
COLUMBUS       CLOUDY    74  74 100 SW8       29.82F
OSU AIRPORT    CLOUDY    73  73 100 S7        29.82S
BOLTON FIELD   NOT AVBL
RICKENBACK AFB NOT AVBL
NEWARK         CLOUDY    74  72  93 SW5       29.82F
MARION         FAIR      72  70  93 SW8       29.81F FOG
LANCASTER      CLOUDY    74  73  97 SW8       29.84R
ZANESVILLE     CLOUDY    73  71  93 S5        29.84S
NEW PHILLY     CLOUDY    74  72  93 S3        29.83F
$$




USA.gov is the U.S. government's official web portal to all federal, state and local government web resources and services.